This is the latest recevied weather packets stored in our database for station/object N3TJJ-11. If no packets are shown the sender has not sent any weather packets the latest 10 day(s).
| Time | Temp. | Humidity | Pressure | Rain* | Wind** | Luminosity | Snow |
|---|---|---|---|---|---|---|---|
| 1777825428 | 9.44° C | 42% | 1014 hPa | 0 mm | - | - | - |
| 1777824829 | 9.44° C | 42% | 1013.9 hPa | 0 mm | - | - | - |
| 1777824708 | 9.44° C | 48% | 1013.9 hPa | 0 mm | - | - | - |
| 1777824229 | 9.44° C | 42% | 1013.9 hPa | 0 mm | - | - | - |
| 1777823988 | 9.44° C | 45% | 1013.9 hPa | 0 mm | - | - | - |
| 1777823630 | 8.89° C | 43% | 1013.8 hPa | 0 mm | - | - | - |
| 1777823268 | 8.89° C | 44% | 1013.8 hPa | 0 mm | - | - | - |
| 1777823029 | 8.33° C | 41% | 1013.9 hPa | 0 mm | - | - | - |
| 1777822548 | 8.89° C | 44% | 1014 hPa | 0 mm | - | - | - |
| 1777822429 | 8.89° C | 44% | 1013.9 hPa | 0 mm | - | - | - |
| 1777821828 | 8.33° C | 48% | 1014 hPa | 0 mm | - | - | - |
| 1777821229 | 7.78° C | 46% | 1014.1 hPa | 0 mm | - | - | - |
| 1777821108 | 7.78° C | 46% | 1014 hPa | 0 mm | - | - | - |
| 1777820630 | 8.33° C | 47% | 1014 hPa | 0 mm | - | - | - |
| 1777820388 | 8.33° C | 48% | 1014.1 hPa | 0 mm | - | - | - |
| 1777820030 | 8.33° C | 50% | 1014 hPa | 0 mm | - | - | - |
| 1777819668 | 8.33° C | 48% | 1014 hPa | 0 mm | - | - | - |
| 1777819429 | 8.33° C | 49% | 1014.1 hPa | 0 mm | - | - | - |
| 1777818948 | 7.78° C | 50% | 1014.1 hPa | 0 mm | - | - | - |
| 1777818829 | 7.78° C | 49% | 1014.1 hPa | 0 mm | - | - | - |
| 1777818228 | 7.22° C | 54% | 1014.1 hPa | 0 mm | - | - | - |
| 1777817630 | 7.22° C | 55% | 1014.1 hPa | 0 mm | - | - | - |
| 1777817508 | 7.22° C | 55% | 1013.9 hPa | 0 mm | - | - | - |
| 1777817029 | 7.22° C | 56% | 1014 hPa | 0 mm | - | - | - |
| 1777816788 | 7.22° C | 58% | 1014 hPa | 0 mm | - | - | - |
* Rain latest hour (hover to see other rain measurements)
** Current wind speed in m/s (hover to see current wind gust speed)